Time,TemperatureF,DewpointF,PressureIn,WindDirection,WindDirectionDegrees,WindSpeedMPH,WindSpeedGustMPH,Humidity,HourlyPrecipIn,Conditions,Clouds,dailyrainin,SoftwareType,DateUTC
2013-07-18 00:03:00,78.4,73.5,30.16,West,281,0.0,0.0,85,0.00,,,0.00,VWS V14.01,2013-07-18 04:03:00,
2013-07-18 00:11:00,78.4,73.5,30.16,West,281,0.0,0.0,85,0.00,,,0.00,VWS V14.01,2013-07-18 04:11:00,
2013-07-18 00:18:00,78.2,73.3,30.16,West,281,0.0,0.0,85,0.00,,,0.00,VWS V14.01,2013-07-18 04:18:00,
2013-07-18 00:25:00,77.8,73.3,30.16,West,281,0.0,0.0,86,0.00,,,0.00,VWS V14.01,2013-07-18 04:25:00,
2013-07-18 00:33:00,77.7,73.5,30.16,West,281,0.0,0.0,87,0.00,,,0.00,VWS V14.01,2013-07-18 04:33:00,
2013-07-18 00:39:00,77.6,73.4,30.16,SW,224,0.0,0.0,87,0.00,,,0.00,VWS V14.01,2013-07-18 04:39:00,
2013-07-18 00:44:00,77.5,73.3,30.16,SW,224,0.0,0.0,87,0.00,,,0.00,VWS V14.01,2013-07-18 04:44:00,
2013-07-18 00:49:00,77.4,73.6,30.16,SW,224,0.0,0.0,88,0.00,,,0.00,VWS V14.01,2013-07-18 04:49:00,
2013-07-18 00:54:00,77.1,73.3,30.16,SW,224,0.0,0.0,88,0.00,,,0.00,VWS V14.01,2013-07-18 04:54:00,
2013-07-18 01:00:00,77.1,73.3,30.16,SW,224,0.0,0.0,88,0.00,,,0.00,VWS V14.01,2013-07-18 05:00:00,
2013-07-18 01:01:00,76.9,73.1,30.16,SW,224,0.0,0.0,88,0.00,,,0.00,VWS V14.01,2013-07-18 05:01:00,
2013-07-18 01:08:00,76.7,73.0,30.16,SW,224,0.0,0.0,89,0.00,,,0.00,weatherlink.com 1.10,2013-07-18 05:08:00,
2013-07-18 01:15:00,76.6,73.1,30.16,SW,224,0.0,0.0,89,0.00,,,0.00,VWS V14.01,2013-07-18 05:15:00,
2013-07-18 01:21:00,76.7,73.2,30.16,SW,224,0.0,0.0,89,0.00,,,0.00,VWS V14.01,2013-07-18 05:21:00,
2013-07-18 01:27:00,76.6,73.1,30.16,SW,224,0.0,0.0,89,0.00,,,0.00,VWS V14.01,2013-07-18 05:27:00,
2013-07-18 01:30:00,76.6,73.1,30.16,SW,224,0.0,0.0,89,0.00,,,0.00,VWS V14.01,2013-07-18 05:30:00,
2013-07-18 01:32:00,76.3,72.8,30.16,SW,224,0.0,0.0,89,0.00,,,0.00,VWS V14.01,2013-07-18 05:32:00,
2013-07-18 01:40:00,76.1,73.0,30.16,SW,224,0.0,0.0,90,0.00,,,0.00,weatherlink.com 1.10,2013-07-18 05:40:00,
2013-07-18 01:45:00,76.0,72.9,30.16,SW,224,0.0,0.0,90,0.00,,,0.00,VWS V14.01,2013-07-18 05:45:00,
2013-07-18 01:51:00,75.9,72.8,30.16,SW,224,0.0,0.0,90,0.00,,,0.00,VWS V14.01,2013-07-18 05:51:00,
2013-07-18 01:56:00,75.7,72.6,30.15,SW,224,0.0,0.0,90,0.00,,,0.00,VWS V14.01,2013-07-18 05:56:00,
2013-07-18 02:00:00,75.7,72.6,30.15,SW,224,0.0,0.0,90,0.00,,,0.00,VWS V14.01,2013-07-18 06:00:00,
2013-07-18 02:04:00,75.5,72.4,30.15,SW,224,0.0,0.0,90,0.00,,,0.00,VWS V14.01,2013-07-18 06:04:00,
2013-07-18 02:09:00,75.3,72.5,30.15,SW,224,0.0,0.0,91,0.00,,,0.00,VWS V14.01,2013-07-18 06:09:00,
2013-07-18 02:15:00,75.2,72.4,30.15,SW,224,0.0,0.0,91,0.00,,,0.00,VWS V14.01,2013-07-18 06:15:00,
2013-07-18 02:22:00,75.1,72.3,30.15,SW,224,0.0,0.0,91,0.00,,,0.00,VWS V14.01,2013-07-18 06:22:00,
2013-07-18 02:29:00,75.1,73.0,30.15,SW,224,0.0,1.0,92,0.00,,,0.00,weatherlink.com 1.10,2013-07-18 06:29:00,
2013-07-18 02:30:00,75.1,72.6,30.15,SW,224,0.0,0.0,92,0.00,,,0.00,VWS V14.01,2013-07-18 06:30:00,
2013-07-18 02:34:00,75.3,72.8,30.15,SW,224,0.0,0.0,92,0.00,,,0.00,VWS V14.01,2013-07-18 06:34:00,
2013-07-18 02:42:00,75.3,72.5,30.15,SW,224,0.0,0.0,91,0.00,,,0.00,VWS V14.01,2013-07-18 06:42:00,
2013-07-18 02:49:00,75.3,72.5,30.14,SW,215,0.0,0.0,91,0.00,,,0.00,VWS V14.01,2013-07-18 06:49:00,
2013-07-18 02:56:00,75.3,72.5,30.14,SW,215,0.0,0.0,91,0.00,,,0.00,VWS V14.01,2013-07-18 06:56:00,
2013-07-18 03:00:00,75.3,72.5,30.14,SW,215,0.0,0.0,91,0.00,,,0.00,VWS V14.01,2013-07-18 07:00:00,
2013-07-18 03:05:00,75.2,72.4,30.14,SW,214,0.0,0.0,91,0.00,,,0.00,VWS V14.01,2013-07-18 07:05:00,
2013-07-18 03:10:00,75.1,72.3,30.14,SW,215,0.0,0.0,91,0.00,,,0.00,VWS V14.01,2013-07-18 07:10:00,
2013-07-18 03:17:00,74.9,72.4,30.14,SW,214,0.0,0.0,92,0.00,,,0.00,VWS V14.01,2013-07-18 07:17:00,
2013-07-18 03:22:00,74.9,72.1,30.14,SW,215,0.0,0.0,91,0.00,,,0.00,VWS V14.01,2013-07-18 07:22:00,
2013-07-18 03:30:00,74.8,72.0,30.14,SW,215,0.0,0.0,92,0.00,,,0.00,weatherlink.com 1.10,2013-07-18 07:30:00,
2013-07-18 03:37:00,74.8,72.3,30.14,SSW,195,0.0,0.0,92,0.00,,,0.00,VWS V14.01,2013-07-18 07:37:00,
2013-07-18 03:44:00,74.9,72.4,30.14,SSW,204,0.0,0.0,92,0.00,,,0.00,VWS V14.01,2013-07-18 07:44:00,
2013-07-18 03:49:00,74.9,72.1,30.14,SSW,204,0.0,0.0,91,0.00,,,0.00,VWS V14.01,2013-07-18 07:49:00,
2013-07-18 03:54:00,74.9,72.1,30.13,SSW,204,0.0,0.0,91,0.00,,,0.00,VWS V14.01,2013-07-18 07:54:00,
2013-07-18 04:00:00,74.8,72.3,30.14,SSW,203,0.0,0.0,92,0.00,,,0.00,VWS V14.01,2013-07-18 08:00:00,
2013-07-18 04:05:00,74.8,72.3,30.14,SSW,203,0.0,0.0,92,0.00,,,0.00,VWS V14.01,2013-07-18 08:05:00,
2013-07-18 04:11:00,74.7,71.9,30.14,SSW,204,0.0,0.0,91,0.00,,,0.00,VWS V14.01,2013-07-18 08:11:00,
2013-07-18 04:16:00,74.5,72.0,30.13,SSW,204,0.0,0.0,92,0.00,,,0.00,VWS V14.01,2013-07-18 08:16:00,
2013-07-18 04:21:00,74.4,71.9,30.13,SSW,204,0.0,0.0,92,0.00,,,0.00,VWS V14.01,2013-07-18 08:21:00,
2013-07-18 04:29:00,74.2,71.7,30.13,SSW,204,0.0,0.0,92,0.00,,,0.00,VWS V14.01,2013-07-18 08:29:00,
2013-07-18 04:30:00,74.3,71.8,30.13,SSW,203,0.0,0.0,92,0.00,,,0.00,VWS V14.01,2013-07-18 08:30:00,
2013-07-18 04:37:00,74.0,71.8,30.13,SSW,204,0.0,0.0,93,0.00,,,0.00,VWS V14.01,2013-07-18 08:37:00,
2013-07-18 04:42:00,73.9,71.8,30.13,SSW,204,0.0,0.0,93,0.00,,,0.00,VWS V14.01,2013-07-18 08:42:00,
2013-07-18 04:49:00,73.9,72.0,30.13,SSW,204,0.0,0.0,93,0.00,,,0.00,weatherlink.com 1.10,2013-07-18 08:49:00,
2013-07-18 04:56:00,73.9,71.8,30.13,SW,215,0.0,0.0,93,0.00,,,0.00,VWS V14.01,2013-07-18 08:56:00,
2013-07-18 05:00:00,73.9,71.8,30.13,SW,215,0.0,0.0,93,0.00,,,0.00,VWS V14.01,2013-07-18 09:00:00,
2013-07-18 05:03:00,73.9,71.8,30.12,SW,215,0.0,0.0,93,0.00,,,0.00,VWS V14.01,2013-07-18 09:03:00,
2013-07-18 05:08:00,73.8,71.7,30.12,SW,215,0.0,0.0,93,0.00,,,0.00,VWS V14.01,2013-07-18 09:08:00,
2013-07-18 05:16:00,73.7,71.6,30.12,SW,215,0.0,0.0,93,0.00,,,0.00,VWS V14.01,2013-07-18 09:16:00,
2013-07-18 05:22:00,73.5,71.4,30.12,SW,215,0.0,0.0,93,0.00,,,0.00,VWS V14.01,2013-07-18 09:22:00,
2013-07-18 05:30:00,73.3,71.5,30.13,SW,215,0.0,0.0,94,0.00,,,0.00,VWS V14.01,2013-07-18 09:30:00,
2013-07-18 05:37:00,73.1,71.0,30.12,SW,215,0.0,0.0,94,0.00,,,0.00,weatherlink.com 1.10,2013-07-18 09:37:00,
2013-07-18 05:42:00,73.2,71.4,30.12,SW,215,0.0,0.0,94,0.00,,,0.00,VWS V14.01,2013-07-18 09:42:00,
2013-07-18 05:47:00,73.0,71.2,30.12,SW,215,0.0,0.0,94,0.00,,,0.00,VWS V14.01,2013-07-18 09:47:00,
2013-07-18 05:52:00,73.1,71.6,30.12,SW,215,0.0,0.0,95,0.00,,,0.00,VWS V14.01,2013-07-18 09:52:00,
2013-07-18 05:57:00,73.1,71.6,30.12,SW,215,0.0,0.0,95,0.00,,,0.00,VWS V14.01,2013-07-18 09:57:00,
2013-07-18 06:00:00,73.1,71.6,30.12,SW,215,0.0,0.0,95,0.00,,,0.00,VWS V14.01,2013-07-18 10:00:00,
2013-07-18 06:02:00,73.0,71.5,30.12,SW,215,0.0,0.0,95,0.00,,,0.00,VWS V14.01,2013-07-18 10:02:00,
2013-07-18 06:08:00,73.0,71.5,30.12,SW,215,0.0,0.0,95,0.00,,,0.00,VWS V14.01,2013-07-18 10:08:00,
2013-07-18 06:14:00,72.9,71.4,30.12,SW,215,0.0,0.0,95,0.00,,,0.00,VWS V14.01,2013-07-18 10:14:00,
2013-07-18 06:22:00,72.9,71.4,30.12,SW,215,0.0,0.0,95,0.00,,,0.00,VWS V14.01,2013-07-18 10:22:00,
2013-07-18 06:28:00,72.9,71.4,30.12,SW,215,0.0,0.0,95,0.00,,,0.00,VWS V14.01,2013-07-18 10:28:00,
2013-07-18 06:35:00,72.7,71.2,30.12,SW,215,0.0,0.0,95,0.00,,,0.00,VWS V14.01,2013-07-18 10:35:00,
2013-07-18 06:42:00,72.6,71.0,30.12,SW,215,0.0,0.0,95,0.00,,,0.00,weatherlink.com 1.10,2013-07-18 10:42:00,
2013-07-18 06:49:00,72.6,71.1,30.12,SW,215,0.0,0.0,95,0.00,,,0.00,VWS V14.01,2013-07-18 10:49:00,
2013-07-18 06:54:00,72.6,71.1,30.12,SW,215,0.0,0.0,95,0.00,,,0.00,VWS V14.01,2013-07-18 10:54:00,
2013-07-18 06:59:00,72.5,71.3,30.12,SW,215,0.0,0.0,96,0.00,,,0.00,VWS V14.01,2013-07-18 10:59:00,
2013-07-18 07:00:00,72.5,71.0,30.12,SW,215,0.0,0.0,95,0.00,,,0.00,VWS V14.01,2013-07-18 11:00:00,
2013-07-18 07:05:00,72.6,71.4,30.12,SW,215,0.0,0.0,96,0.00,,,0.00,VWS V14.01,2013-07-18 11:05:00,
2013-07-18 07:10:00,72.7,71.5,30.12,SW,215,0.0,0.0,96,0.00,,,0.00,VWS V14.01,2013-07-18 11:10:00,
2013-07-18 07:15:00,72.9,71.7,30.12,SW,215,0.0,0.0,96,0.00,,,0.00,VWS V14.01,2013-07-18 11:15:00,
2013-07-18 07:20:00,73.1,71.9,30.12,SW,214,0.0,0.0,96,0.00,,,0.00,VWS V14.01,2013-07-18 11:20:00,
2013-07-18 07:27:00,73.2,72.0,30.12,SW,215,0.0,0.0,96,0.00,,,0.00,VWS V14.01,2013-07-18 11:27:00,
2013-07-18 07:32:00,73.6,72.4,30.12,WSW,238,0.0,1.0,96,0.00,,,0.00,VWS V14.01,2013-07-18 11:32:00,
2013-07-18 07:37:00,74.0,72.5,30.13,NW,315,0.0,0.0,95,0.00,,,0.00,VWS V14.01,2013-07-18 11:37:00,
2013-07-18 07:43:00,74.5,72.7,30.13,SSE,162,0.0,0.0,94,0.00,,,0.00,VWS V14.01,2013-07-18 11:43:00,
2013-07-18 07:51:00,74.8,72.6,30.13,SW,215,0.0,0.0,93,0.00,,,0.00,VWS V14.01,2013-07-18 11:51:00,
2013-07-18 07:56:00,75.3,72.8,30.13,WSW,250,0.0,1.0,92,0.00,,,0.00,VWS V14.01,2013-07-18 11:56:00,
2013-07-18 08:00:00,75.3,72.8,30.13,WSW,250,0.0,1.0,92,0.00,,,0.00,VWS V14.01,2013-07-18 12:00:00,
2013-07-18 08:01:00,75.6,72.8,30.13,WSW,250,0.0,0.0,91,0.00,,,0.00,VWS V14.01,2013-07-18 12:01:00,
2013-07-18 08:06:00,75.9,73.1,30.13,SSW,203,0.0,0.0,91,0.00,,,0.00,VWS V14.01,2013-07-18 12:06:00,
2013-07-18 08:11:00,76.2,73.1,30.13,South,183,0.0,0.0,90,0.00,,,0.00,VWS V14.01,2013-07-18 12:11:00,
2013-07-18 08:16:00,76.5,73.0,30.13,SSW,197,0.0,0.0,89,0.00,,,0.00,VWS V14.01,2013-07-18 12:16:00,
2013-07-18 08:21:00,76.9,73.4,30.13,WSW,255,0.0,0.0,89,0.00,,,0.00,VWS V14.01,2013-07-18 12:21:00,
2013-07-18 08:27:00,77.2,73.4,30.13,WSW,255,0.0,0.0,88,0.00,,,0.00,VWS V14.01,2013-07-18 12:27:00,
2013-07-18 08:32:00,77.7,73.5,30.13,ESE,120,0.0,0.0,87,0.00,,,0.00,VWS V14.01,2013-07-18 12:32:00,
2013-07-18 08:38:00,77.9,73.4,30.13,South,181,0.0,0.0,86,0.00,,,0.00,VWS V14.01,2013-07-18 12:38:00,
2013-07-18 08:43:00,78.4,73.9,30.13,SW,218,0.0,0.0,86,0.00,,,0.00,VWS V14.01,2013-07-18 12:43:00,
2013-07-18 08:50:00,78.8,74.0,30.13,South,190,0.0,1.0,86,0.00,,,0.00,weatherlink.com 1.10,2013-07-18 12:50:00,
2013-07-18 08:57:00,79.3,74.1,30.13,SSW,200,0.0,0.0,84,0.00,,,0.00,VWS V14.01,2013-07-18 12:57:00,
2013-07-18 09:04:00,79.7,74.4,30.13,West,281,0.0,0.0,84,0.00,,,0.00,VWS V14.01,2013-07-18 13:04:00,
2013-07-18 09:10:00,80.0,74.4,30.13,SSW,205,0.0,0.0,83,0.00,,,0.00,VWS V14.01,2013-07-18 13:10:00,
2013-07-18 09:16:00,80.7,74.7,30.13,SW,217,0.0,0.0,82,0.00,,,0.00,VWS V14.01,2013-07-18 13:16:00,
2013-07-18 09:22:00,81.9,76.0,30.12,East,95,0.0,2.0,81,0.00,,,0.00,weatherlink.com 1.10,2013-07-18 13:22:00,
2013-07-18 09:27:00,82.5,75.3,30.12,SW,230,1.0,1.0,79,0.00,,,0.00,VWS V14.01,2013-07-18 13:27:00,
2013-07-18 09:30:00,82.3,75.1,30.12,WNW,301,0.0,0.0,79,0.00,,,0.00,VWS V14.01,2013-07-18 13:30:00,
2013-07-18 09:32:00,83.0,75.1,30.12,NNW,337,2.0,2.0,77,0.00,,,0.00,VWS V14.01,2013-07-18 13:32:00,
2013-07-18 09:38:00,83.3,75.0,30.12,WNW,285,1.0,3.0,77,0.00,,,0.00,weatherlink.com 1.10,2013-07-18 13:38:00,
2013-07-18 09:43:00,83.6,75.2,30.12,West,280,0.0,3.0,76,0.00,,,0.00,VWS V14.01,2013-07-18 13:43:00,
2013-07-18 09:48:00,84.1,76.1,30.12,NNW,335,1.0,3.0,77,0.00,,,0.00,VWS V14.01,2013-07-18 13:48:00,
2013-07-18 09:55:00,84.9,76.0,30.12,NW,313,1.0,3.0,75,0.00,,,0.00,weatherlink.com 1.10,2013-07-18 13:55:00,
2013-07-18 10:00:00,84.9,76.1,30.12,NNW,335,1.0,2.0,75,0.00,,,0.00,VWS V14.01,2013-07-18 14:00:00,
2013-07-18 10:03:00,85.1,76.3,30.12,North,351,0.0,0.0,75,0.00,,,0.00,VWS V14.01,2013-07-18 14:03:00,
2013-07-18 10:08:00,85.2,75.6,30.12,NNW,333,1.0,3.0,73,0.00,,,0.00,VWS V14.01,2013-07-18 14:08:00,
2013-07-18 10:15:00,85.5,75.9,30.12,WNW,285,1.0,1.0,73,0.00,,,0.00,VWS V14.01,2013-07-18 14:15:00,
2013-07-18 10:21:00,86.1,76.4,30.12,NW,322,1.0,1.0,73,0.00,,,0.00,VWS V14.01,2013-07-18 14:21:00,
2013-07-18 10:29:00,86.6,76.9,30.12,SSE,167,3.0,3.0,73,0.00,,,0.00,VWS V14.01,2013-07-18 14:29:00,
2013-07-18 10:30:00,86.2,76.5,30.12,ESE,115,0.0,0.0,73,0.00,,,0.00,VWS V14.01,2013-07-18 14:30:00,
2013-07-18 10:36:00,87.5,76.9,30.12,WSW,255,1.0,1.0,71,0.00,,,0.00,VWS V14.01,2013-07-18 14:36:00,
2013-07-18 10:42:00,87.9,77.3,30.11,WSW,256,0.0,0.0,71,0.00,,,0.00,VWS V14.01,2013-07-18 14:42:00,
2013-07-18 10:49:00,88.1,77.5,30.11,WNW,299,1.0,1.0,71,0.00,,,0.00,VWS V14.01,2013-07-18 14:49:00,
2013-07-18 10:56:00,88.0,77.0,30.11,NNW,327,2.0,5.0,70,0.00,,,0.00,weatherlink.com 1.10,2013-07-18 14:56:00,
2013-07-18 11:00:00,88.0,77.0,30.11,WSW,238,0.0,0.0,70,0.00,,,0.00,VWS V14.01,2013-07-18 15:00:00,
2013-07-18 11:04:00,88.4,77.4,30.11,SSE,150,0.0,0.0,70,0.00,,,0.00,VWS V14.01,2013-07-18 15:04:00,
2013-07-18 11:10:00,89.5,78.0,30.11,SW,219,0.0,3.0,69,0.00,,,0.00,weatherlink.com 1.10,2013-07-18 15:10:00,
2013-07-18 11:17:00,89.2,77.3,30.11,WNW,290,0.0,0.0,68,0.00,,,0.00,VWS V14.01,2013-07-18 15:17:00,
2013-07-18 11:24:00,89.6,76.7,30.11,SSE,163,2.0,2.0,66,0.00,,,0.00,VWS V14.01,2013-07-18 15:24:00,
2013-07-18 11:29:00,90.7,76.8,30.11,WSW,256,0.0,1.0,64,0.00,,,0.00,VWS V14.01,2013-07-18 15:29:00,
2013-07-18 11:34:00,90.2,75.9,30.11,West,273,0.0,5.0,63,0.00,,,0.00,VWS V14.01,2013-07-18 15:34:00,
2013-07-18 11:42:00,90.0,75.2,30.11,West,263,1.0,1.0,62,0.00,,,0.00,VWS V14.01,2013-07-18 15:42:00,
2013-07-18 11:49:00,90.3,76.5,30.10,SW,215,1.0,1.0,64,0.00,,,0.00,VWS V14.01,2013-07-18 15:49:00,
2013-07-18 11:55:00,90.7,75.4,30.10,WSW,243,0.0,0.0,61,0.00,,,0.00,VWS V14.01,2013-07-18 15:55:00,
2013-07-18 12:01:00,91.2,76.4,30.10,NNW,330,1.0,1.0,62,0.00,,,0.00,VWS V14.01,2013-07-18 16:01:00,
2013-07-18 12:09:00,91.3,75.0,30.10,SE,134,0.0,0.0,59,0.00,,,0.00,VWS V14.01,2013-07-18 16:09:00,
2013-07-18 12:15:00,91.6,75.8,30.10,WNW,286,1.0,1.0,60,0.00,,,0.00,VWS V14.01,2013-07-18 16:15:00,
2013-07-18 12:20:00,91.0,74.7,30.10,North,360,0.0,1.0,59,0.00,,,0.00,VWS V14.01,2013-07-18 16:20:00,
2013-07-18 12:27:00,90.9,74.6,30.10,SW,235,0.0,0.0,59,0.00,,,0.00,VWS V14.01,2013-07-18 16:27:00,
2013-07-18 12:32:00,91.0,76.2,30.09,SE,132,1.0,3.0,62,0.00,,,0.00,VWS V14.01,2013-07-18 16:32:00,
2013-07-18 12:39:00,92.0,75.6,30.09,WSW,248,0.0,0.0,59,0.00,,,0.00,VWS V14.01,2013-07-18 16:39:00,
2013-07-18 12:47:00,92.6,75.0,30.09,SSW,193,3.0,6.0,57,0.00,,,0.00,weatherlink.com 1.10,2013-07-18 16:47:00,
2013-07-18 12:52:00,92.6,75.2,30.09,NW,308,0.0,2.0,57,0.00,,,0.00,VWS V14.01,2013-07-18 16:52:00,
2013-07-18 12:57:00,92.7,75.2,30.09,NW,308,1.0,1.0,57,0.00,,,0.00,VWS V14.01,2013-07-18 16:57:00,
2013-07-18 13:00:00,92.7,75.8,30.09,West,274,1.0,4.0,58,0.00,,,0.00,VWS V14.01,2013-07-18 17:00:00,
2013-07-18 13:02:00,92.2,74.2,30.09,SSW,210,1.0,1.0,56,0.00,,,0.00,VWS V14.01,2013-07-18 17:02:00,
2013-07-18 13:08:00,91.9,75.0,30.09,WSW,238,2.0,2.0,58,0.00,,,0.00,VWS V14.01,2013-07-18 17:08:00,
2013-07-18 13:14:00,92.3,73.8,30.09,West,281,0.0,0.0,55,0.00,,,0.00,VWS V14.01,2013-07-18 17:14:00,
2013-07-18 13:22:00,93.3,74.7,30.09,West,274,0.0,0.0,55,0.00,,,0.00,VWS V14.01,2013-07-18 17:22:00,
2013-07-18 13:29:00,92.7,74.2,30.08,NW,311,0.0,0.0,55,0.00,,,0.00,VWS V14.01,2013-07-18 17:29:00,
2013-07-18 13:30:00,92.9,74.4,30.08,WSW,258,2.0,3.0,55,0.00,,,0.00,VWS V14.01,2013-07-18 17:30:00,
2013-07-18 13:36:00,92.8,74.8,30.08,West,281,1.0,1.0,56,0.00,,,0.00,VWS V14.01,2013-07-18 17:36:00,
2013-07-18 13:44:00,91.2,74.4,30.08,East,91,0.0,0.0,58,0.00,,,0.00,VWS V14.01,2013-07-18 17:44:00,
2013-07-18 13:49:00,92.4,73.9,30.08,SE,126,0.0,5.0,55,0.00,,,0.00,VWS V14.01,2013-07-18 17:49:00,
2013-07-18 13:54:00,93.1,74.6,30.08,SSE,162,7.0,7.0,55,0.00,,,0.00,VWS V14.01,2013-07-18 17:54:00,
2013-07-18 14:02:00,93.1,73.4,30.07,NNW,330,2.0,2.0,53,0.00,,,0.00,VWS V14.01,2013-07-18 18:02:00,
2013-07-18 14:10:00,94.4,74.6,30.07,West,277,3.0,3.0,53,0.00,,,0.00,VWS V14.01,2013-07-18 18:10:00,
2013-07-18 14:15:00,94.1,74.4,30.07,SW,231,2.0,2.0,53,0.00,,,0.00,VWS V14.01,2013-07-18 18:15:00,
2013-07-18 14:22:00,93.5,74.4,30.07,NW,311,0.0,0.0,54,0.00,,,0.00,VWS V14.01,2013-07-18 18:22:00,
2013-07-18 14:29:00,94.4,75.8,30.06,SSE,155,4.0,4.0,55,0.00,,,0.00,VWS V14.01,2013-07-18 18:29:00,
2013-07-18 14:30:00,94.3,76.2,30.07,East,101,2.0,3.0,56,0.00,,,0.00,VWS V14.01,2013-07-18 18:30:00,
2013-07-18 14:36:00,93.2,75.0,30.06,West,279,2.0,5.0,55,0.00,,,0.00,weatherlink.com 1.10,2013-07-18 18:36:00,
2013-07-18 14:43:00,94.0,74.8,30.06,South,177,4.0,4.0,54,0.00,,,0.00,VWS V14.01,2013-07-18 18:43:00,
2013-07-18 15:04:00,94.5,75.3,30.05,South,176,0.0,0.0,54,0.00,,,0.00,VWS V14.01,2013-07-18 19:04:00,
2013-07-18 15:12:00,94.5,75.8,30.05,SSW,204,0.0,0.0,55,0.00,,,0.00,VWS V14.01,2013-07-18 19:12:00,
2013-07-18 15:20:00,94.6,74.8,30.05,South,177,1.0,1.0,53,0.00,,,0.00,VWS V14.01,2013-07-18 19:20:00,
2013-07-18 15:25:00,94.5,75.8,30.05,South,176,2.0,2.0,55,0.00,,,0.00,VWS V14.01,2013-07-18 19:25:00,
2013-07-18 15:30:00,94.7,74.9,30.05,NNW,343,3.0,4.0,53,0.00,,,0.00,VWS V14.01,2013-07-18 19:30:00,
2013-07-18 15:36:00,93.9,74.2,30.04,SSE,158,4.0,4.0,53,0.00,,,0.00,VWS V14.01,2013-07-18 19:36:00,
2013-07-18 15:43:00,94.6,74.8,30.04,NNW,330,2.0,2.0,53,0.00,,,0.00,VWS V14.01,2013-07-18 19:43:00,
2013-07-18 15:50:00,94.9,73.9,30.03,West,273,0.0,0.0,51,0.00,,,0.00,VWS V14.01,2013-07-18 19:50:00,
2013-07-18 15:56:00,95.1,74.7,30.03,NW,321,0.0,0.0,52,0.00,,,0.00,VWS V14.01,2013-07-18 19:56:00,
2013-07-18 16:00:00,95.1,74.7,30.03,NW,321,0.0,0.0,52,0.00,,,0.00,VWS V14.01,2013-07-18 20:00:00,
2013-07-18 16:03:00,95.4,73.2,30.03,SW,224,4.0,4.0,49,0.00,,,0.00,VWS V14.01,2013-07-18 20:03:00,
2013-07-18 16:08:00,95.4,74.0,30.03,SSE,159,2.0,7.0,50,0.00,,,0.00,weatherlink.com 1.10,2013-07-18 20:08:00,
2013-07-18 16:14:00,95.6,74.6,30.03,SE,145,1.0,1.0,51,0.00,,,0.00,VWS V14.01,2013-07-18 20:14:00,
2013-07-18 16:21:00,95.1,74.1,30.02,SSE,151,1.0,1.0,51,0.00,,,0.00,VWS V14.01,2013-07-18 20:21:00,
2013-07-18 16:26:00,93.6,73.9,30.02,ESE,103,0.0,2.0,53,0.00,,,0.00,VWS V14.01,2013-07-18 20:26:00,
2013-07-18 16:30:00,93.6,73.3,30.02,ENE,74,2.0,2.0,52,0.00,,,0.00,VWS V14.01,2013-07-18 20:30:00,
2013-07-18 16:32:00,93.7,75.1,30.01,NNW,342,3.0,3.0,55,0.00,,,0.00,VWS V14.01,2013-07-18 20:32:00,
2013-07-18 16:38:00,94.6,74.3,30.01,South,190,4.0,4.0,52,0.00,,,0.00,VWS V14.01,2013-07-18 20:38:00,
2013-07-18 16:48:00,94.5,72.4,30.01,South,172,2.0,2.0,49,0.00,,,0.00,VWS V14.01,2013-07-18 20:48:00,
2013-07-18 16:53:00,94.4,74.1,30.01,WSW,252,1.0,2.0,52,0.00,,,0.00,VWS V14.01,2013-07-18 20:53:00,
2013-07-18 16:58:00,94.6,72.5,30.01,WNW,297,0.0,2.0,49,0.00,,,0.00,VWS V14.01,2013-07-18 20:58:00,
2013-07-18 17:04:00,95.2,73.0,30.00,SW,233,1.0,6.0,49,0.00,,,0.00,VWS V14.01,2013-07-18 21:04:00,
2013-07-18 18:27:00,94.5,74.2,29.98,WNW,284,1.0,1.0,52,0.00,,,0.00,VWS V14.01,2013-07-18 22:27:00,
2013-07-18 20:02:00,89.2,73.0,29.96,NW,312,0.0,2.0,60,0.00,,,0.00,weatherlink.com 1.10,2013-07-19 00:02:00,